Theta_e
302 302 302 303 303 302 303 303 302 302 303 303 302 303 304 306 303 302 310 312 309 311 314 315 316 317 317 317 318 319 321 322 323 323 323 323 323 323 323 324 326 326 327 330 331 333 334 337 339 342 342 343 346 348 351 353 353 353 356 356 354 353 357 358 355 354 357 356 355 352 355 358 356 353 347 347 348 349 352 350 348 348 346 347 351 351 355
300 302 302 303 302 302 302 301 301 302 302 302 303 304 306 307 310 312 311 312 310 313 314 315 316 318 318 319 320 320 320 320 322 322 322 322 323 322 322 324 325 326 327 329 330 331 333 334 335 337 341 342 342 344 346 349 352 353 354 355 354 351 350 354 354 357 357 356 359 358 350 350 358 358 356 351 346 348 349 351 351 352 351 349 350 352 353
298 300 301 301 301 300 299 301 301 301 302 303 304 305 307 309 310 312 312 310 310 315 317 317 319 320 320 319 318 318 320 320 320 321 321 322 322 323 324 325 325 326 327 328 330 330 331 332 332 332 337 343 343 344 345 345 348 352 352 355 355 353 352 356 359 357 355 356 353 354 357 354 350 359 359 357 355 354 352 352 353 357 352 350 346 348 351
296 299 299 300 300 299 299 299 300 300 299 299 302 302 307 306 307 309 309 307 307 313 316 317 318 318 318 317 318 318 319 319 320 319 319 321 322 322 323 324 325 326 325 327 328 329 329 331 333 333 336 338 340 342 345 344 350 354 354 352 351 354 353 356 355 356 358 356 356 354 355 356 355 351 354 362 367 371 354 351 356 357 353 351 351 347 346
294 299 300 298 298 297 294 295 298 300 301 302 303 305 309 309 309 308 304 307 312 314 316 315 315 316 317 317 317 317 318 319 319 319 319 320 321 321 322 323 324 324 325 326 328 329 329 328 331 333 334 337 339 340 344 349 349 347 347 348 347 349 352 354 352 353 355 355 355 354 356 357 359 359 357 355 359 364 360 354 353 353 356 353 353 352 348
294 298 298 298 294 288 290 301 303 303 300 301 300 303 307 310 311 309 310 312 315 315 314 313 314 314 315 317 320 321 319 318 319 319 320 320 321 322 322 322 323 324 325 327 327 329 330 331 329 332 332 332 336 338 341 342 344 344 343 343 345 345 347 351 353 355 354 354 354 355 356 359 362 362 360 361 359 359 360 361 362 356 353 355 356 356 353
294 297 297 292 287 289 302 306 307 306 306 304 303 306 309 311 313 313 312 313 314 315 316 316 317 317 318 318 319 320 319 320 318 318 318 318 320 320 321 321 323 324 324 325 327 328 328 330 330 332 332 331 334 336 337 338 339 340 340 340 341 342 344 344 346 346 347 351 353 354 354 355 356 360 359 359 360 356 353 352 356 363 357 354 357 359 355
298 296 294 285 288 301 304 305 305 307 307 307 308 307 309 310 312 313 312 313 314 315 316 317 318 317 317 317 319 319 319 319 319 317 317 317 318 319 320 321 323 323 322 323 325 329 332 329 327 330 332 333 332 333 335 335 337 337 338 338 337 340 340 341 342 342 344 346 349 352 355 353 351 352 351 352 353 355 355 351 347 348 354 356 356 358 358
292 296 294 292 302 300 301 301 302 303 301 301 301 298 305 310 312 312 312 313 313 314 315 316 317 316 316 314 316 319 319 318 319 317 317 317 317 318 319 319 322 323 323 323 327 329 329 330 328 327 331 334 334 333 331 332 336 336 336 336 337 337 337 338 340 342 344 344 347 349 352 353 351 350 351 353 354 357 357 357 354 351 350 351 356 357 356
297 293 293 294 291 289 297 304 306 306 306 307 306 302 301 310 310 312 312 312 312 312 311 313 314 314 311 310 312 316 316 317 318 317 318 317 317 317 317 319 321 322 322 322 325 325 327 328 329 329 332 331 333 334 333 332 334 334 333 333 336 337 337 337 340 343 344 346 346 347 349 351 352 351 350 352 355 356 356 356 356 352 352 351 351 354 356
297 294 291 291 288 293 302 303 305 307 308 308 306 300 296 307 310 310 312 311 311 311 310 311 312 309 304 307 311 316 316 315 315 316 316 316 315 316 316 317 318 317 320 322 323 323 323 322 326 330 332 331 331 330 331 331 334 334 334 334 334 335 337 338 338 338 342 346 347 347 346 348 351 349 349 351 354 355 355 355 355 355 355 354 354 355 354
297 296 292 289 297 296 302 305 306 306 308 305 301 289 291 308 310 310 311 310 310 311 313 312 310 306 303 307 310 314 314 314 315 315 315 316 315 316 316 318 318 319 323 322 321 320 321 323 323 326 330 330 329 329 330 330 332 333 334 335 337 337 338 338 338 338 338 342 344 345 345 347 353 352 351 352 354 355 355 355 354 356 353 352 352 354 355
294 296 294 295 299 305 306 306 306 306 304 301 293 288 300 310 310 310 311 311 311 312 311 309 306 310 313 311 312 314 313 313 314 315 316 317 317 316 317 317 322 319 320 321 319 319 323 325 323 324 324 324 325 328 330 330 331 332 335 337 338 338 338 336 337 339 338 338 340 341 342 351 355 354 354 354 354 354 354 355 355 354 354 354 353 354 355
293 295 292 293 298 306 308 307 307 306 301 291 290 306 314 312 311 312 312 311 312 312 311 307 310 311 312 312 312 312 312 312 314 314 315 316 317 318 318 320 320 319 318 319 320 320 322 322 323 324 324 325 325 326 326 327 330 333 336 336 338 337 336 335 335 336 338 340 340 341 345 348 349 352 356 354 354 355 355 354 354 352 352 353 353 353 355
297 297 293 291 288 303 309 308 305 305 297 304 311 312 312 313 312 312 312 312 311 311 310 311 311 311 310 310 310 311 312 311 312 314 315 316 315 315 316 317 318 318 318 318 319 320 320 321 323 324 324 325 325 325 324 327 330 332 334 335 337 337 337 335 335 336 339 338 338 341 343 347 347 347 350 352 354 355 354 354 353 352 352 353 353 354 355
294 293 291 290 301 307 309 307 301 305 311 313 314 312 309 311 312 311 311 311 311 310 311 309 309 309 309 309 311 311 312 312 313 314 315 315 316 315 316 316 317 318 318 318 318 319 320 322 323 324 324 324 325 325 325 329 329 333 334 333 335 335 335 336 336 336 337 335 337 340 344 345 344 344 345 347 353 355 353 352 352 353 354 354 354 353 353
300 297 300 304 309 310 310 311 310 312 314 316 314 314 312 311 310 313 310 310 311 311 310 310 309 308 309 309 310 309 310 312 312 312 313 314 314 315 314 315 317 317 315 316 317 318 319 321 322 324 323 323 323 324 327 330 330 329 331 332 333 333 332 332 333 333 333 335 338 342 342 339 340 341 343 346 347 353 355 352 350 350 353 353 353 354 356
307 308 309 311 310 311 310 311 314 312 313 315 314 312 312 312 313 312 311 311 311 311 312 309 309 308 309 310 309 310 311 312 312 314 314 314 315 314 315 315 316 315 316 317 317 317 319 320 321 323 323 322 322 323 326 328 328 327 327 329 331 332 330 330 331 331 331 332 337 341 339 339 339 342 343 342 343 347 350 350 351 351 350 351 351 352 353
299 294 308 307 309 310 310 309 312 313 314 314 311 311 310 312 312 313 314 313 313 312 312 310 309 309 310 309 310 312 312 311 312 312 312 313 313 313 314 315 316 316 316 315 315 316 316 318 319 319 321 321 323 325 326 326 327 329 329 329 330 331 331 328 329 330 331 331 332 337 337 337 337 338 341 341 343 345 344 344 344 347 349 349 348 349 350
299 299 305 307 310 311 312 310 310 310 312 313 312 312 311 313 314 314 314 314 312 312 310 310 309 309 309 309 310 310 311 312 312 312 312 312 313 314 315 315 316 315 315 314 315 316 316 317 318 319 319 320 322 323 323 323 325 327 327 327 325 327 327 328 329 329 330 333 334 332 335 335 334 335 337 338 337 338 337 338 339 340 340 342 344 347 349
303 306 306 308 309 309 310 311 312 312 311 312 312 311 312 312 313 313 314 313 311 310 309 311 311 310 310 310 311 310 311 311 312 312 312 313 313 314 314 314 315 314 314 314 315 315 315 317 318 319 319 320 320 322 323 325 327 326 326 327 328 328 328 328 328 332 332 331 332 330 330 333 335 339 337 335 335 335 337 340 340 338 337 338 339 339 342
299 300 305 309 301 300 306 309 311 312 313 312 312 312 311 311 311 313 312 312 311 310 310 311 310 309 310 311 311 309 310 310 311 311 312 312 312 312 313 314 314 314 315 315 315 315 315 317 317 317 318 319 321 320 322 324 325 325 326 326 325 326 327 327 327 326 329 329 329 329 329 331 332 336 337 323 330 336 335 333 327 318 319 335 339 338 337
299 309 308 310 310 308 308 310 312 313 314 312 311 311 311 311 312 313 312 310 311 310 310 312 311 311 311 311 311 311 310 311 312 312 311 311 311 312 312 312 313 313 314 314 314 314 315 316 316 317 317 317 319 320 322 323 324 324 325 325 324 324 325 325 326 327 326 326 328 331 330 330 333 332 332 337 314 312 316 319 314 307 304 304 306 310 326
310 311 311 312 310 308 310 313 313 313 314 313 312 312 313 312 312 312 312 311 311 310 311 311 312 311 311 311 310 310 310 310 311 311 311 311 312 312 312 311 312 312 312 313 312 313 314 315 315 316 315 317 318 318 320 322 324 324 324 324 324 324 324 325 328 329 327 328 328 329 330 331 331 331 330 330 333 320 313 314 311 306 305 304 303 303 303
308 313 313 314 313 313 313 314 314 315 315 314 312 312 313 313 313 313 312 312 312 311 310 310 311 311 310 310 310 310 309 310 310 310 311 312 310 310 311 311 311 312 312 312 313 313 313 314 314 315 315 317 319 319 320 320 322 322 323 324 323 323 324 326 327 328 325 328 329 328 327 327 328 329 328 327 326 328 338 314 309 307 305 303 302 302 302
313 313 314 314 313 312 314 313 312 313 314 314 313 313 314 315 315 314 313 314 313 312 311 310 310 310 311 310 310 309 309 308 310 310 309 310 309 310 310 310 311 312 313 312 312 313 313 314 314 314 315 316 318 320 320 322 321 322 322 322 322 324 324 325 327 328 327 327 327 327 328 329 328 327 327 327 327 327 327 329 334 325 311 303 302 301 300
313 314 312 310 309 310 312 309 308 313 314 316 315 314 314 314 314 315 315 315 313 313 312 312 311 310 311 310 310 310 308 309 309 309 310 310 310 310 309 310 311 312 312 311 312 312 313 314 313 313 313 315 318 321 322 321 322 322 321 322 321 323 326 327 325 327 327 326 325 326 328 329 328 326 326 328 328 326 326 326 326 329 330 334 322 304 327
313 314 313 308 307 308 310 312 312 312 315 314 314 313 315 317 312 311 311 311 312 313 312 311 311 310 310 310 309 309 309 309 308 308 309 309 310 310 311 311 311 311 310 311 311 312 313 313 312 311 312 315 318 319 319 321 322 322 322 323 322 322 323 325 325 326 326 326 327 328 328 327 326 325 325 325 324 324 324 326 328 328 329 332 335 324 318
312 313 314 313 313 313 315 315 314 313 314 315 316 314 314 313 309 310 310 310 311 311 310 310 311 311 310 309 309 308 308 308 308 308 309 310 310 309 311 311 312 311 310 310 311 311 311 311 310 310 311 314 316 317 318 318 320 320 320 320 320 321 322 325 326 325 325 326 326 326 324 322 323 323 322 323 323 324 325 326 328 329 329 331 333 335 331
311 313 314 314 314 314 312 310 310 311 311 313 312 311 312 311 309 308 308 308 310 310 310 310 311 310 310 309 309 308 308 308 309 309 309 309 309 310 310 311 310 309 309 309 309 310 310 310 310 310 311 313 314 315 316 317 318 320 322 322 322 322 322 323 324 324 323 323 322 322 322 321 323 323 322 323 323 324 325 326 327 327 327 328 329 328 328
311 311 312 313 313 312 311 311 310 310 310 312 313 311 311 311 309 309 309 310 310 310 311 310 310 310 310 309 309 309 309 310 310 310 309 310 310 310 310 309 307 306 307 308 308 309 309 310 309 309 311 312 313 314 314 315 317 319 321 322 322 321 320 320 321 321 320 320 321 320 320 320 320 321 321 322 322 323 324 325 325 325 326 327 327 327 328
309 309 309 310 310 311 311 310 310 309 310 312 311 309 309 308 308 308 309 308 309 309 309 310 309 309 309 310 310 311 310 310 310 310 310 309 309 310 310 309 309 309 308 308 309 309 309 309 309 309 311 312 312 312 312 312 313 314 316 318 318 319 320 321 319 319 320 320 320 319 319 319 319 320 320 321 321 322 323 323 323 324 323 324 324 326 323
306 305 306 309 308 309 309 310 309 310 310 308 308 310 311 312 311 311 310 310 309 309 309 309 310 310 310 310 309 310 310 310 310 309 308 308 308 309 309 309 309 309 309 309 309 310 309 308 308 309 310 311 311 311 311 311 312 313 314 315 316 316 318 318 318 318 318 318 318 318 319 319 319 319 319 320 321 321 321 321 321 321 322 323 323 324 313
307 306 307 308 309 309 307 309 311 310 311 311 311 312 312 312 314 312 312 312 310 309 309 310 310 310 310 309 309 309 310 309 307 307 307 307 308 308 309 309 309 309 309 309 309 309 309 309 309 309 309 309 309 310 311 311 311 311 312 312 313 314 316 316 317 317 317 317 318 320 320 320 319 319 319 319 319 319 319 320 320 319 319 320 322 323 307
310 310 311 311 312 312 313 312 311 311 311 310 311 311 312 313 311 310 313 311 310 310 311 311 310 310 309 309 308 309 309 308 308 308 307 307 307 307 307 307 307 308 308 308 308 308 308 308 308 308 309 309 309 310 310 310 310 310 310 311 312 312 313 315 316 316 316 316 317 317 317 318 318 319 320 319 319 319 319 319 318 318 318 318 319 320 317
311 310 310 310 310 310 312 313 312 312 311 311 312 312 312 311 310 311 311 311 311 311 311 310 310 309 309 309 308 308 308 308 308 307 307 307 306 307 306 306 305 305 306 306 307 308 307 307 309 310 308 308 308 309 309 309 309 309 309 309 310 310 311 312 313 314 315 315 316 316 316 317 318 318 318 318 317 317 317 317 317 317 317 317 317 316 316
311 310 311 311 309 309 309 311 313 313 312 312 312 313 311 310 310 311 311 311 310 311 311 310 309 307 307 309 309 309 309 309 307 306 306 306 306 306 305 305 305 304 304 303 306 307 307 307 309 310 308 307 307 307 308 311 308 308 309 308 308 308 309 309 311 312 312 314 315 315 315 316 317 316 317 316 316 316 317 316 316 316 315 314 314 314 313
311 311 311 311 311 309 309 310 313 314 313 312 314 314 313 312 312 310 310 310 310 309 310 309 308 309 309 309 309 308 308 307 306 306 306 305 305 305 304 303 303 303 303 304 307 307 306 307 309 308 307 306 306 306 307 310 311 308 307 306 306 307 307 308 308 310 311 311 314 314 314 314 314 314 315 315 315 315 315 315 314 314 312 312 312 311 311
308 310 311 311 311 309 309 310 311 312 312 312 312 313 314 313 313 311 310 309 309 311 310 310 309 309 308 308 307 307 306 306 306 305 305 304 305 304 303 304 305 306 306 307 306 306 306 307 307 306 306 306 306 305 306 308 310 306 305 305 305 306 307 307 308 309 310 311 311 312 313 313 313 314 313 313 314 314 314 313 313 312 311 311 310 309 308
307 307 308 310 309 310 308 308 310 310 313 314 313 311 312 311 310 309 309 309 310 311 308 309 308 307 307 307 307 305 306 306 305 305 304 305 305 304 304 304 307 307 307 305 306 305 306 306 306 306 305 305 304 304 305 306 307 305 304 304 304 305 306 307 307 307 307 308 309 311 311 311 312 311 311 311 311 312 312 311 311 310 310 309 308 307 307
306 306 307 308 310 311 309 308 309 311 311 310 311 310 311 310 311 310 308 308 309 310 310 309 308 307 307 307 306 305 306 305 305 305 306 305 303 303 301 300 305 306 305 304 305 305 306 305 305 304 304 303 303 304 303 305 304 303 304 304 304 304 304 305 305 306 307 307 309 308 309 309 309 309 309 309 309 310 310 310 309 308 308 306 305 305 305
305 306 306 306 309 310 309 309 309 309 309 310 311 311 311 312 311 310 310 308 309 309 309 309 309 308 307 306 306 305 305 305 306 306 306 304 302 301 300 302 305 305 304 304 305 304 304 304 304 303 302 301 302 303 304 303 302 303 303 303 303 304 304 304 304 305 307 307 307 307 308 308 307 307 307 307 307 307 307 307 307 306 305 304 303 303 303
305 305 305 305 306 310 310 309 310 308 308 308 309 311 312 312 311 310 308 308 308 308 307 308 308 308 307 306 305 304 304 305 305 304 304 305 305 304 303 303 305 306 304 305 304 303 303 302 301 300 302 302 302 302 304 302 302 303 303 303 303 303 303 303 303 304 304 304 305 306 306 305 305 305 305 305 305 306 306 305 304 304 303 303 302 302 301
304 304 305 305 305 309 310 310 309 308 307 309 311 312 311 312 311 309 308 308 308 307 307 307 307 306 306 306 305 304 304 304 304 304 303 303 303 304 305 304 303 304 303 303 302 302 302 301 301 300 302 302 302 302 302 302 302 302 302 302 302 301 302 302 302 303 303 303 303 304 304 304 304 304 304 304 304 304 304 303 302 302 302 301 301 300 300
303 303 305 306 306 306 309 309 307 308 310 310 310 310 309 310 309 309 308 308 307 307 307 306 306 306 306 305 305 305 306 305 305 304 302 300 299 300 304 304 304 303 303 302 302 302 302 301 301 301 301 301 302 302 300 300 300 300 300 300 301 301 301 301 301 302 302 302 303 303 303 303 303 303 303 303 303 302 301 301 301 301 300 300 300 299 299
303 303 304 305 305 307 309 309 310 311 310 308 306 309 309 309 308 309 308 308 307 306 307 307 307 306 307 306 306 305 305 305 305 305 306 303 301 303 304 303 303 303 302 302 302 300 301 301 301 300 301 301 302 300 299 298 298 298 298 298 299 300 299 299 300 300 301 301 302 302 302 302 302 302 302 302 302 301 301 301 301 300 299 299 299 299 298
304 304 304 304 305 306 308 310 309 310 309 308 308 307 307 308 309 308 307 307 308 307 307 307 307 307 307 307 306 305 303 303 304 305 305 305 306 304 304 303 303 302 302 302 301 301 300 300 300 300 300 301 300 298 298 297 296 296 296 297 298 298 298 298 299 299 300 300 301 302 302 301 301 301 301 301 301 301 300 300 299 299 299 299 299 298 298
303 304 304 304 306 306 308 307 307 307 306 306 307 308 309 307 306 307 307 307 307 308 308 308 308 308 308 307 307 306 305 304 301 302 304 304 304 304 303 302 302 302 301 301 301 301 301 300 300 300 300 301 299 298 297 297 296 296 296 295 295 296 296 297 298 298 299 300 299 299 299 299 299 300 300 299 299 299 299 299 299 299 299 298 298 297 297
304 304 305 305 306 305 304 306 306 306 306 307 307 307 307 309 309 308 308 308 307 307 306 306 306 306 307 306 306 306 306 306 305 302 305 305 304 304 303 303 303 301 302 301 301 301 301 301 300 300 300 300 298 298 297 297 297 296 296 295 295 295 295 295 296 296 297 297 297 297 297 297 298 298 298 298 298 298 298 298 298 297 298 298 298 298 297
305 305 304 304 306 304 303 304 306 305 306 308 306 307 308 308 306 305 306 306 305 306 306 305 306 306 305 305 305 306 306 306 306 306 305 305 304 305 303 303 303 302 302 301 302 301 301 301 300 300 300 299 298 298 298 297 297 296 296 295 295 295 295 295 295 295 296 296 295 296 296 296 296 297 297 297 297 297 297 298 297 297 296 297 297 297 297
304 304 305 305 306 308 306 307 306 307 307 306 304 305 306 306 304 306 307 306 306 304 305 306 306 304 304 304 305 305 305 305 305 304 305 304 305 303 302 302 303 302 302 302 301 300 300 300 300 300 299 299 298 298 298 297 297 297 296 296 295 295 295 294 294 293 293 294 294 294 295 295 294 295 295 296 296 296 297 296 296 296 296 295 296 296 296
305 305 304 306 306 308 307 307 307 306 306 308 308 307 306 305 304 304 304 307 305 304 304 304 303 303 304 303 303 304 304 304 304 304 303 304 303 303 303 302 302 302 302 302 301 302 301 301 301 300 299 299 298 298 298 298 297 297 297 297 296 295 295 295 294 293 293 293 293 293 293 294 294 293 294 294 294 294 294 295 295 295 296 296 296 296 297
Wind_Speed
2 6 7 9 7 15 8 6 4 4 7 5 6 8 7 9 4 8 12 12 15 15 14 15 13 10 10 10 9 9 9 9 9 10 11 12 13 12 12 12 11 12 12 11 13 13 11 11 10 10 10 10 11 10 9 7 7 6 7 7 6 6 4 2 3 2 2 5 6 15 19 9 11 9 11 10 9 9 10 12 12 12 11 12 13 12 11
3 5 4 2 6 4 5 6 1 6 3 5 7 7 6 5 12 14 14 15 15 12 14 13 12 8 8 9 9 7 5 8 10 9 10 11 12 13 12 12 12 12 12 12 12 12 11 11 11 9 7 9 10 10 10 9 8 6 6 7 7 6 5 4 3 3 1 2 4 8 12 19 13 10 8 8 10 10 9 10 10 9 8 8 10 13 12
3 4 4 4 5 4 4 4 2 4 5 5 2 3 3 6 11 14 17 17 14 11 13 13 10 9 7 6 7 8 9 8 7 10 11 11 11 11 11 10 11 11 12 12 11 12 11 12 14 13 9 7 7 8 8 9 8 9 9 9 7 4 3 4 3 1 2 3 4 1 6 8 15 16 11 8 6 7 7 7 7 7 8 9 9 10 13
7 6 4 7 5 4 6 9 5 5 7 7 5 6 4 5 11 15 14 13 11 11 12 11 9 10 8 8 6 5 6 7 9 10 9 10 11 10 10 11 10 11 12 11 11 11 11 11 12 11 10 10 8 6 5 7 6 5 7 9 8 7 6 5 4 4 1 1 2 3 3 4 6 12 14 13 7 4 8 10 7 6 8 9 8 8 9
8 7 5 6 4 5 8 11 10 9 7 8 2 1 7 9 0 18 13 9 11 11 12 13 12 11 10 9 7 6 7 6 5 5 6 8 6 9 9 10 10 11 10 10 10 10 10 10 9 10 9 8 8 8 5 2 6 7 8 8 8 9 8 5 3 3 4 3 3 4 4 5 6 8 8 10 14 9 8 8 8 8 6 7 8 7 8
7 8 7 4 3 6 5 3 8 11 10 9 9 6 6 4 6 2 8 14 14 14 13 13 14 13 11 9 7 5 3 4 5 3 9 8 6 7 9 9 10 9 9 8 9 10 9 9 11 10 10 10 9 8 8 6 6 6 8 9 9 9 8 9 8 6 5 5 5 6 7 7 8 7 8 8 12 13 8 6 4 7 9 7 6 7 8
5 7 6 3 5 6 8 6 11 8 3 4 4 3 9 8 8 12 15 17 15 14 13 12 12 13 12 10 10 7 2 2 4 4 6 7 8 7 7 8 9 9 9 9 9 9 10 9 10 9 10 10 9 8 9 9 10 9 10 9 9 9 9 10 10 10 10 9 8 7 7 9 8 9 8 9 8 9 13 14 11 6 5 7 7 7 9
5 4 4 3 3 8 5 8 7 8 6 10 7 8 5 5 8 11 11 9 9 12 11 13 11 10 14 13 10 10 5 2 5 2 5 5 6 8 7 7 8 9 9 9 9 7 6 8 10 9 9 9 8 8 8 9 9 9 9 9 9 8 9 9 10 9 10 9 8 8 5 6 7 8 7 8 8 5 2 4 9 12 13 9 9 9 9
7 4 6 4 7 7 7 4 4 3 1 3 3 4 9 6 8 9 11 10 8 10 11 14 10 9 13 10 8 10 8 5 5 4 5 5 6 7 7 7 8 8 9 8 7 6 7 7 8 8 7 7 8 8 9 8 9 9 9 9 10 9 9 8 8 8 8 9 9 8 8 5 5 4 4 3 2 2 4 6 8 9 8 10 10 10 12
5 4 6 6 5 8 8 5 8 3 3 3 2 3 1 9 6 7 13 11 11 11 10 13 11 13 7 10 7 11 12 8 6 3 4 5 6 6 7 7 8 9 9 8 7 6 7 7 8 7 6 8 7 7 8 8 8 9 9 10 10 10 10 10 8 6 7 8 8 8 8 6 4 2 2 5 4 3 3 3 7 11 10 8 8 9 12
5 6 7 6 4 4 8 9 10 8 6 5 5 4 5 5 5 5 8 12 9 7 10 4 9 5 5 5 8 2 7 7 4 4 4 5 5 6 6 9 9 10 9 8 9 8 9 10 8 7 6 7 7 7 8 7 7 7 7 8 9 9 9 9 10 9 7 6 6 7 8 7 1 4 7 7 5 5 6 6 7 6 4 5 5 6 10
4 5 5 6 3 5 6 10 9 6 7 6 5 6 7 11 7 6 5 6 8 3 8 7 4 3 0 8 6 6 5 7 7 3 3 4 5 6 7 9 9 8 7 8 9 10 9 10 9 8 8 7 8 7 7 7 6 7 7 7 6 7 7 8 8 9 9 9 8 7 7 7 3 5 6 6 6 7 8 7 7 4 5 5 8 9 10
5 4 5 2 6 7 8 8 7 7 6 3 4 2 7 5 8 5 2 10 9 7 6 4 4 9 8 8 5 3 7 3 5 3 4 5 5 6 8 8 7 6 7 8 9 10 9 9 10 10 10 9 8 7 7 6 7 7 6 5 6 6 6 8 8 8 8 9 9 9 6 5 4 5 6 6 7 8 8 5 5 5 5 6 8 10 10
7 6 7 6 6 5 7 7 6 6 4 5 3 6 4 7 9 6 4 8 9 8 5 4 3 8 6 6 4 6 4 5 4 4 5 6 6 6 7 6 7 7 7 9 9 10 10 11 11 10 9 8 7 7 7 8 8 7 6 6 5 6 7 8 8 8 7 7 8 7 6 5 7 6 6 7 7 8 7 7 7 7 6 6 6 7 8
6 6 5 5 3 5 5 9 6 2 6 5 7 7 8 7 9 8 8 7 7 4 5 2 5 2 5 5 5 4 4 3 5 5 6 6 6 6 6 7 8 8 7 8 9 10 10 10 10 10 10 10 9 8 8 8 8 8 7 6 6 5 6 7 7 8 6 7 7 6 7 7 8 9 8 8 7 7 7 8 8 9 7 6 5 6 6
6 6 5 2 4 6 8 4 2 7 8 8 8 8 8 7 6 7 6 6 6 4 3 4 4 3 3 1 4 3 3 3 3 5 5 5 5 6 7 8 8 9 8 8 9 9 9 9 8 9 9 10 9 9 9 8 8 7 7 7 6 6 5 6 7 7 7 8 7 6 6 7 7 8 8 9 8 6 7 7 6 7 6 5 5 5 6
5 4 1 6 4 6 5 6 8 9 9 7 7 4 7 6 6 5 5 8 7 3 3 2 2 1 2 0 2 2 2 2 4 5 5 5 6 7 7 7 9 9 9 9 9 9 9 9 8 8 8 9 11 11 9 9 9 9 8 8 7 6 6 7 7 8 8 8 6 5 6 7 7 8 8 8 8 6 5 6 6 7 6 6 6 5 4
3 4 5 6 4 5 5 5 7 9 7 7 3 6 5 5 5 9 4 5 9 8 4 3 4 4 1 1 0 1 3 3 4 4 4 5 6 6 6 7 8 8 8 9 9 10 10 10 9 8 9 9 10 10 10 9 10 9 10 9 8 7 7 7 8 9 9 10 7 5 7 6 7 7 7 8 8 7 6 6 5 5 6 6 6 6 5
1 3 9 8 7 5 4 4 7 6 8 6 3 3 3 5 2 5 5 5 6 7 7 5 3 3 3 4 2 2 2 1 3 4 5 5 5 6 6 7 7 7 8 8 9 11 11 11 10 10 11 10 10 9 9 10 10 9 9 10 9 8 7 7 7 8 9 8 8 6 7 5 5 6 7 7 6 6 7 8 9 9 7 7 7 6 6
6 4 2 1 2 3 6 6 5 6 5 7 3 1 3 1 4 4 6 6 6 5 6 6 5 4 4 2 1 1 1 1 1 2 3 4 5 5 6 6 7 7 8 9 10 11 10 10 10 10 10 11 11 11 11 11 11 10 9 10 10 9 9 8 7 7 7 11 10 7 5 6 7 6 6 7 8 8 8 8 7 8 8 9 9 9 8
6 8 9 5 5 4 3 3 4 4 6 7 6 2 0 4 6 5 5 5 5 6 5 6 5 5 3 3 3 2 1 2 1 1 3 3 5 6 7 7 7 8 8 10 10 11 11 10 10 10 10 11 11 12 11 10 9 9 9 10 10 11 9 7 6 6 6 7 6 7 8 7 6 4 5 5 6 7 8 7 8 8 8 8 7 7 8
5 6 3 6 7 7 6 8 9 7 5 6 7 10 7 4 6 6 5 6 4 4 4 6 7 6 4 4 2 3 2 0 2 3 3 5 5 6 6 7 9 9 9 9 10 11 11 10 11 11 11 11 11 12 12 10 10 10 10 10 11 10 9 7 7 7 6 6 6 7 8 8 8 6 3 5 4 4 7 9 14 14 5 7 8 6 6
3 7 4 1 3 2 3 1 3 4 5 8 9 9 10 10 9 6 9 9 6 6 4 3 4 4 3 4 5 4 4 3 0 3 4 4 5 6 8 8 8 9 9 10 11 11 11 11 12 12 12 13 13 13 12 11 11 10 10 9 10 10 10 8 6 6 7 8 6 6 6 7 8 7 7 5 6 7 8 11 11 14 14 14 14 11 7
6 2 4 7 4 5 2 2 2 3 4 5 6 8 8 8 9 8 8 7 7 6 6 6 4 4 6 5 4 4 3 3 3 3 3 5 5 6 7 7 8 9 10 11 11 12 11 11 12 13 14 14 13 14 13 12 11 11 11 10 10 10 11 9 7 6 6 6 7 7 6 7 8 7 7 8 6 6 10 9 9 12 14 15 14 13 10
6 7 6 3 3 5 5 5 4 4 5 5 7 8 8 8 8 8 8 8 8 7 7 7 7 7 9 8 6 5 4 2 3 3 5 5 5 6 6 8 9 9 9 10 10 11 11 12 13 14 14 15 15 15 13 12 11 12 11 10 10 11 11 10 8 7 7 6 5 5 7 8 8 8 8 8 9 8 4 8 11 14 15 14 14 14 12
7 7 7 8 8 8 7 6 9 8 8 7 7 8 9 8 8 6 7 7 7 8 6 6 8 9 4 3 3 4 4 5 4 6 4 5 5 7 7 9 8 8 9 9 10 11 12 14 14 13 14 15 15 15 15 13 11 10 11 12 12 10 10 10 8 5 5 6 7 7 7 7 7 7 8 8 9 9 10 8 5 6 7 11 13 11 9
6 7 8 10 12 11 10 11 9 8 8 4 3 10 11 11 10 7 6 6 7 7 9 9 3 1 3 3 4 4 6 4 5 6 5 5 5 6 7 8 10 10 10 10 10 11 13 12 12 13 14 15 15 16 16 15 12 10 10 11 11 14 22 17 9 6 5 6 7 7 7 7 5 6 8 8 8 9 9 9 9 8 7 6 3 7 3
6 5 6 8 9 9 8 10 12 12 6 5 6 8 10 13 6 7 8 8 7 8 6 4 3 3 4 5 5 6 6 7 5 4 4 5 5 5 5 8 8 9 9 10 10 10 10 11 11 12 13 14 14 15 15 16 15 11 9 10 11 10 10 12 9 6 5 6 7 6 5 6 6 7 7 9 10 10 9 9 9 8 8 6 6 4 8
7 8 7 9 10 8 5 6 4 3 5 5 8 8 9 13 10 10 10 8 8 10 8 6 5 6 6 5 5 6 6 5 5 5 4 4 6 7 7 7 7 8 8 10 10 9 10 10 11 11 12 12 14 15 15 15 15 13 10 10 10 11 10 7 6 7 7 5 4 5 5 6 7 7 8 9 10 11 11 10 8 7 7 6 6 4 5
7 7 7 7 8 7 5 5 6 7 9 8 9 11 13 15 12 11 10 11 11 8 6 7 7 7 6 5 5 5 6 6 3 3 4 5 5 6 7 6 8 8 8 8 9 10 11 11 11 11 11 12 14 14 15 14 14 15 13 11 11 10 9 7 7 7 7 7 6 6 6 7 7 7 9 9 10 10 10 10 8 7 7 7 6 5 6
9 8 8 8 8 6 7 8 6 7 8 9 9 11 13 14 13 11 13 12 9 8 8 7 7 7 6 6 5 5 5 2 2 3 3 4 5 5 5 7 7 7 7 8 10 10 10 11 11 9 10 12 12 13 13 13 12 13 11 8 6 6 8 10 8 8 7 7 7 8 7 7 8 8 10 10 9 9 9 8 8 9 8 8 7 7 4
11 11 11 10 9 10 9 7 6 6 6 5 8 13 14 16 15 13 12 12 11 11 10 9 9 8 7 5 6 6 3 2 3 3 4 5 4 3 4 6 6 8 7 9 9 9 10 10 10 10 10 11 11 12 12 11 11 11 11 11 11 9 7 7 7 7 7 7 7 7 7 8 9 8 9 9 9 9 9 9 8 8 8 8 8 5 5
11 12 11 10 10 11 10 8 8 8 8 9 11 13 13 11 12 13 11 11 11 10 9 8 7 6 6 6 6 4 3 4 4 5 4 3 3 4 5 5 6 6 7 7 8 8 8 9 10 11 10 11 12 13 12 11 10 9 10 10 9 10 10 9 8 8 8 7 8 8 9 9 8 8 9 9 9 9 9 9 9 8 8 7 8 4 5
10 11 13 14 13 10 11 10 7 7 8 10 11 9 5 4 7 9 10 9 8 9 8 7 7 7 6 6 5 4 4 5 5 4 3 2 4 4 5 6 5 7 7 7 7 7 7 8 9 9 10 12 12 11 11 11 9 9 9 10 10 10 10 9 9 8 7 8 8 9 9 9 8 8 9 9 9 9 9 9 8 8 8 8 7 3 6
10 11 12 14 15 14 11 8 6 8 8 10 9 7 7 7 1 8 8 6 8 7 7 7 7 7 7 6 5 4 5 6 4 3 1 3 3 4 5 5 6 6 7 6 6 5 7 8 9 10 11 12 11 10 10 11 10 9 9 9 10 10 11 11 10 10 9 9 9 10 9 8 7 7 7 8 8 7 8 8 8 8 8 8 7 7 1
9 9 8 8 11 15 16 12 10 10 10 10 9 8 7 7 11 12 11 9 8 8 8 8 7 7 6 5 5 6 5 4 3 1 1 2 3 3 4 5 6 6 7 7 5 5 7 8 11 15 12 11 10 10 10 11 11 10 9 9 9 9 10 11 11 11 10 10 10 10 9 9 9 8 9 9 9 7 8 8 8 8 9 7 7 6 7
9 9 7 4 5 6 13 14 9 8 9 9 9 8 8 8 7 11 11 9 9 9 7 7 7 7 7 6 5 5 3 3 2 1 1 2 3 3 5 5 6 6 6 6 6 8 8 8 12 16 12 9 9 10 10 16 10 10 10 9 9 8 9 10 10 10 11 10 9 9 10 9 7 7 6 6 6 7 7 7 6 6 5 6 6 7 7
10 10 9 7 4 5 7 10 10 6 5 8 8 8 9 8 6 13 12 10 9 8 7 6 6 6 5 5 5 5 5 4 2 1 1 2 3 4 5 5 5 5 5 5 6 7 7 9 13 10 9 8 8 9 11 16 17 11 9 9 9 9 9 9 10 10 10 10 10 10 9 8 8 8 7 7 7 7 7 7 7 6 5 5 5 6 6
11 10 9 7 5 3 5 6 8 8 8 8 6 6 6 7 8 11 11 10 8 8 7 6 5 6 6 7 6 6 5 3 1 1 2 3 2 4 4 5 4 5 3 3 6 7 8 9 10 9 8 8 9 9 12 16 18 11 9 9 9 9 9 9 9 9 9 10 9 8 8 8 8 8 8 7 6 7 7 6 5 5 5 5 6 6 6
10 10 10 9 7 4 1 2 6 7 5 2 5 6 6 5 8 11 11 11 9 9 8 8 8 7 7 7 6 5 4 3 3 3 2 2 3 4 4 3 5 3 5 4 5 6 9 11 9 7 7 7 8 8 10 14 16 11 10 9 9 9 8 8 8 8 9 9 10 11 9 7 7 7 6 5 5 5 6 5 5 5 5 4 4 4 4
10 10 10 9 8 5 2 3 3 2 3 4 3 3 4 8 11 8 9 10 8 7 7 8 8 7 7 6 4 3 3 3 3 2 1 3 3 4 4 4 5 5 6 5 5 7 8 8 8 7 7 8 8 11 10 15 13 10 10 9 8 8 8 8 8 9 8 8 8 8 8 7 7 6 6 6 6 6 5 5 4 4 4 4 4 4 5
10 11 10 10 8 4 1 2 3 3 3 5 5 8 9 10 8 8 7 9 9 8 8 8 8 8 7 6 5 4 4 3 2 2 2 2 3 3 4 2 4 4 7 6 8 8 7 8 7 8 8 9 10 15 18 13 11 9 9 8 7 8 8 8 8 8 8 7 7 7 7 7 6 6 5 5 6 6 6 5 4 3 3 3 3 4 4
11 11 10 9 9 4 3 3 6 6 5 5 9 10 13 10 8 7 8 9 8 8 8 7 6 7 8 6 5 4 3 3 2 2 2 1 3 4 3 2 3 4 10 6 7 7 7 6 6 6 12 12 12 18 17 10 9 9 8 7 7 7 7 7 7 7 7 7 7 6 6 5 5 5 5 5 5 6 5 5 4 3 3 3 3 3 3
12 10 9 8 7 4 2 3 4 4 5 4 7 8 5 7 9 10 10 9 9 9 9 7 7 7 7 6 5 4 3 2 2 1 2 2 2 6 6 3 3 4 9 7 7 7 5 5 7 11 15 17 18 17 11 8 8 7 7 7 7 7 8 7 7 7 6 7 6 6 6 6 5 5 5 6 5 5 4 4 3 3 3 3 2 2 3
12 11 10 10 8 6 5 5 6 8 7 4 3 4 9 8 8 9 11 10 9 9 9 8 8 7 6 6 4 3 3 2 1 1 2 2 2 2 5 4 4 5 6 8 6 6 6 7 10 14 14 17 17 15 8 7 8 8 8 8 8 8 8 8 7 7 7 7 7 6 5 5 5 5 4 5 4 4 4 4 3 3 3 2 2 2 2
10 9 9 10 11 8 5 6 5 6 7 6 5 5 5 8 8 7 7 8 9 9 7 8 7 6 4 4 4 3 2 2 3 2 2 1 2 4 2 3 4 6 8 9 4 4 5 9 12 12 14 15 15 8 7 8 8 8 8 8 8 8 8 7 8 7 7 7 6 6 5 5 5 5 5 4 3 3 3 3 3 2 2 2 2 2 2
9 7 6 8 9 11 7 5 6 7 8 6 6 5 3 5 6 6 8 8 6 7 7 6 6 5 4 2 2 1 1 2 4 3 0 1 1 2 2 5 7 6 5 5 5 4 5 6 8 12 14 14 13 7 7 7 7 7 7 7 8 8 7 8 7 7 7 6 6 6 7 6 5 5 6 5 3 3 4 4 3 2 2 2 2 3 3
8 8 7 8 7 8 5 7 9 9 9 8 7 7 7 9 8 5 6 7 7 7 7 7 5 5 5 4 3 3 2 2 0 5 2 2 0 1 2 3 3 4 4 5 4 5 6 5 9 11 12 12 7 7 8 8 7 7 7 7 7 7 7 6 6 7 7 6 6 5 4 4 5 5 5 5 4 4 4 4 4 3 3 3 3 3 3
7 5 5 7 4 1 2 7 8 9 9 11 10 8 7 6 6 5 5 6 7 7 6 6 5 5 5 3 1 2 5 3 2 3 2 2 3 3 2 3 7 2 4 4 5 5 6 7 7 8 11 10 6 6 7 7 7 8 8 7 7 6 6 7 7 7 7 7 6 6 6 5 5 5 5 5 5 5 5 4 4 4 3 3 3 3 3
4 2 2 5 1 2 4 9 8 10 10 10 10 9 6 7 5 3 4 5 5 4 4 5 5 4 3 4 3 5 5 1 0 1 1 3 2 2 1 3 3 4 5 4 4 5 6 7 6 8 8 7 6 6 6 6 6 7 7 8 8 7 7 7 8 9 7 7 7 6 7 6 5 6 6 5 5 5 5 5 5 6 7 5 4 3 3
6 5 3 3 4 3 5 7 8 8 8 9 10 9 8 7 7 5 5 4 4 3 3 4 2 3 3 2 2 4 4 2 2 2 2 3 2 0 1 2 3 3 4 3 3 3 4 5 5 6 7 6 6 6 5 6 6 6 7 7 7 7 7 8 7 7 7 7 6 6 6 6 7 7 6 6 6 7 6 6 6 5 5 5 5 4 3
6 5 4 3 2 5 7 8 9 9 7 4 6 7 7 6 7 8 8 9 7 5 6 6 5 3 3 3 3 3 1 0 2 5 2 2 3 1 1 2 1 1 2 3 3 3 3 4 4 5 5 6 6 6 6 6 5 5 5 6 6 6 7 7 7 7 7 8 7 7 7 6 7 7 7 7 6 6 7 7 7 6 6 6 5 5 4
Wind_Direction
294 352 351 341 349 351 140 67 69 189 235 290 289 262 302 22 343 129 149 150 132 138 136 130 126 127 127 109 98 102 116 125 108 84 84 80 77 71 64 58 60 52 48 42 37 37 50 56 49 33 26 17 21 16 17 33 27 29 30 49 42 33 38 46 25 10 31 317 309 305 297 246 228 228 207 206 202 202 186 193 205 210 217 198 186 194 192
187 220 264 244 320 68 39 87 207 16 349 252 238 294 360 51 100 136 134 131 131 133 133 117 103 92 103 108 103 66 52 104 96 88 75 71 72 71 64 54 56 57 53 50 42 41 37 41 48 51 44 36 25 14 6 22 9 3 8 39 48 62 40 34 9 12 321 212 288 291 296 304 283 243 237 209 203 202 198 193 193 203 210 221 193 185 190
255 212 228 281 273 353 289 254 68 291 306 330 354 311 85 87 140 125 131 132 126 131 126 110 112 105 87 93 78 89 54 22 98 110 96 72 58 64 66 65 55 54 53 45 47 44 42 42 32 26 33 49 41 23 3 18 20 1 2 21 34 54 63 38 37 25 258 247 160 196 308 306 316 304 274 252 222 196 200 199 202 187 200 211 227 198 189
262 206 217 236 249 266 271 268 226 199 235 240 205 234 153 202 124 126 138 137 134 142 123 124 120 124 123 110 89 84 88 58 37 34 54 70 54 50 56 60 54 53 51 45 41 43 42 40 51 37 14 20 21 28 21 15 20 17 17 13 14 25 27 33 22 12 80 195 198 201 202 242 263 286 304 295 267 241 198 193 196 199 193 206 216 232 209
253 192 198 237 238 254 250 245 244 198 231 256 290 98 41 9 237 153 163 142 139 138 141 140 143 143 130 110 92 80 75 64 70 82 76 55 48 50 46 55 56 50 45 41 34 33 40 37 42 51 41 38 17 359 15 14 32 28 25 24 20 20 21 23 344 341 344 332 305 267 248 246 240 254 266 287 290 270 247 203 190 198 208 201 210 219 240
262 141 171 108 235 233 246 14 216 191 219 196 229 155 84 75 342 68 138 135 138 147 164 157 149 147 138 125 113 111 109 140 145 119 76 79 59 51 44 44 55 48 47 39 32 23 29 37 35 49 43 38 29 8 356 15 40 42 32 25 22 15 11 6 1 353 355 337 318 312 291 273 258 238 241 252 263 274 266 257 213 196 205 213 206 215 229
232 130 123 139 228 230 69 52 36 55 33 184 203 96 126 100 96 94 119 138 151 168 162 143 141 133 139 140 144 140 138 157 126 122 101 68 75 57 51 47 48 47 40 36 29 22 20 27 33 36 48 32 29 16 7 6 14 25 28 26 21 12 9 5 1 3 354 353 342 327 323 316 296 290 303 311 324 349 337 332 322 309 237 218 218 216 221
278 168 160 211 194 73 88 80 62 41 44 42 89 98 76 117 125 129 129 142 132 105 112 128 143 145 130 136 143 147 152 313 291 72 74 54 46 59 50 46 59 50 36 26 18 14 7 30 32 24 40 38 28 17 8 12 8 21 20 20 18 8 8 3 358 354 345 341 345 335 326 321 329 338 320 314 335 21 84 291 314 321 311 278 236 225 226
255 207 213 183 116 168 120 149 119 217 207 162 231 215 166 162 151 171 143 138 152 144 148 153 175 155 154 161 148 142 134 120 20 49 76 44 37 38 39 34 53 48 35 14 11 1 13 34 39 12 26 39 34 22 16 8 3 16 14 13 6 7 2 0 354 345 338 334 335 339 339 335 316 322 331 351 315 180 173 194 215 226 244 278 278 250 230
238 266 241 182 168 232 181 152 134 154 128 73 122 264 197 167 187 157 155 162 181 180 182 178 170 190 170 149 148 142 137 140 130 91 70 52 44 29 23 24 33 31 21 4 360 357 6 32 28 356 12 35 27 27 19 6 10 16 12 6 359 355 354 351 345 339 332 330 333 338 343 354 355 33 288 255 232 239 241 213 214 227 227 232 250 276 264
192 230 262 257 213 101 91 126 109 88 93 113 78 209 214 143 166 159 175 184 172 163 68 61 98 110 156 138 126 156 116 88 91 72 49 16 21 25 12 26 16 8 2 359 354 3 2 21 3 335 16 32 25 14 12 5 1 14 9 6 357 351 350 342 338 344 335 337 347 346 351 342 211 231 245 257 255 227 230 231 238 253 267 256 264 269 273
262 250 221 248 7 121 125 114 124 126 105 111 186 204 195 141 162 157 178 148 139 96 103 115 110 89 279 118 107 114 115 109 90 80 52 37 19 21 5 32 9 353 347 351 359 355 3 10 342 349 21 20 10 8 1 352 356 4 2 357 352 345 341 337 337 339 342 342 347 349 338 317 282 270 281 291 268 243 238 237 247 235 240 256 260 253 245
217 254 265 256 107 100 127 130 119 125 118 164 204 232 100 144 123 132 172 142 135 108 114 96 123 84 100 96 123 119 79 81 78 54 69 49 27 18 17 20 357 359 0 7 355 348 1 349 348 359 4 359 354 349 345 337 355 352 350 348 347 339 337 334 334 336 341 342 334 330 326 305 252 240 245 241 256 261 266 261 254 251 233 237 251 258 259
250 215 224 241 88 115 123 125 135 106 176 200 154 83 68 93 104 98 71 89 100 119 122 180 89 96 107 102 105 77 70 66 69 46 47 38 31 23 15 5 20 13 3 355 349 353 349 346 354 351 348 343 341 337 331 335 340 338 336 343 331 341 332 333 331 333 333 330 319 319 320 319 313 293 261 252 261 268 264 261 258 247 238 248 254 269 285
250 262 267 236 197 152 177 116 123 79 275 76 103 114 93 96 99 100 93 107 108 138 120 79 71 104 71 67 65 62 61 37 46 49 51 38 19 19 360 20 20 13 359 353 352 346 342 346 346 342 340 336 333 331 326 326 326 323 334 323 330 325 330 331 332 322 319 319 317 316 320 327 327 318 316 308 284 267 268 275 273 271 261 248 251 263 271
257 229 242 46 28 125 125 166 297 102 79 118 119 125 119 122 120 112 111 113 133 146 99 137 116 86 77 96 94 92 78 53 53 57 42 29 17 11 13 13 17 4 358 351 343 338 337 338 339 338 335 331 326 324 320 328 316 318 317 327 315 318 326 332 324 321 319 317 313 311 323 331 320 313 313 309 299 269 262 254 259 260 253 258 251 257 270
343 21 79 182 198 122 142 94 99 104 119 125 127 112 130 143 145 138 161 150 129 113 98 111 77 203 197 270 74 38 54 59 51 32 27 22 16 6 12 2 11 357 350 341 336 333 334 335 334 335 331 325 325 321 327 327 325 320 317 310 307 308 330 326 320 323 318 307 303 314 333 323 313 312 308 307 300 302 284 285 282 276 268 262 258 254 253
310 262 64 97 170 175 136 124 114 126 129 127 134 140 166 169 162 165 200 181 158 152 164 193 175 219 219 116 219 3 62 32 29 27 13 12 11 8 1 2 0 346 341 338 332 331 331 333 333 331 329 325 320 322 322 316 311 308 301 301 302 316 320 318 319 320 315 312 309 332 318 300 302 306 307 308 312 317 313 303 302 286 285 283 279 274 270
305 235 155 180 170 156 186 140 146 153 147 145 174 143 229 170 174 129 117 118 125 143 159 200 228 189 169 204 188 92 50 359 17 4 2 360 358 352 352 357 344 344 341 332 334 332 330 331 330 326 324 322 317 316 314 315 310 310 317 315 312 309 307 308 313 311 310 310 316 310 294 304 309 303 302 309 315 327 337 352 350 337 327 314 295 279 275
237 266 111 105 54 167 196 223 175 172 165 146 162 234 204 99 145 147 143 139 154 163 183 187 190 208 213 240 120 245 208 60 14 345 331 335 327 345 353 341 355 341 337 335 328 328 325 326 325 325 321 318 316 315 314 311 312 310 303 302 299 298 298 300 301 304 303 304 302 298 307 319 309 307 318 330 333 337 341 340 338 334 334 333 328 320 303
246 260 270 212 190 227 238 196 251 231 188 200 160 173 231 146 158 164 138 181 203 190 216 152 173 188 172 162 189 221 96 208 144 338 306 312 340 350 338 348 342 342 337 329 326 322 322 322 320 318 317 313 314 312 308 306 302 302 301 298 295 288 288 289 289 290 289 286 304 322 321 306 298 312 314 313 318 316 312 324 324 319 314 303 299 307 320
241 263 14 343 255 235 208 216 213 224 234 226 190 169 174 194 177 176 198 171 222 236 207 181 178 202 182 197 152 250 248 332 275 278 314 343 335 332 337 340 338 331 325 321 319 322 323 328 327 325 322 320 315 313 311 310 311 306 305 301 296 291 286 286 293 290 293 310 320 310 307 311 311 304 262 198 242 288 304 306 302 299 272 268 281 294 289
251 33 44 138 1 176 153 53 356 297 262 235 214 217 202 207 227 194 197 218 188 215 232 173 183 174 186 195 195 201 218 224 290 319 306 305 331 336 344 332 321 318 320 325 329 330 332 330 326 325 323 321 317 313 309 305 301 299 298 294 290 288 284 279 293 314 310 300 302 308 302 294 296 300 304 283 212 224 244 273 287 293 289 265 263 262 247
305 287 343 351 333 316 353 354 1 269 255 273 271 262 234 186 201 211 205 212 227 202 202 203 209 218 206 215 206 222 236 254 251 292 324 343 344 342 319 308 315 322 326 332 331 330 331 329 326 323 318 315 311 307 304 302 299 295 295 296 295 289 286 282 280 280 289 290 293 294 298 304 302 300 297 294 285 216 233 257 281 282 274 274 273 267 244
300 319 312 328 311 300 316 288 251 265 299 260 243 240 236 216 201 197 197 195 213 231 221 213 201 213 218 202 204 225 252 292 329 325 341 346 320 303 308 316 323 327 330 329 327 327 327 325 323 321 317 317 315 308 298 287 288 290 283 276 277 284 284 280 277 273 274 287 298 302 300 297 293 296 298 299 300 303 260 220 246 263 270 275 272 268 267
298 292 287 279 278 271 270 281 264 243 241 271 268 249 240 230 213 183 191 190 186 194 222 227 221 214 223 269 296 299 316 293 316 347 301 281 305 315 315 320 332 325 322 323 323 322 322 319 319 322 323 320 319 315 310 305 292 285 291 294 294 285 275 275 273 275 301 303 293 284 277 277 282 292 294 297 301 301 302 309 296 289 267 249 259 273 275
275 275 280 275 265 262 251 251 256 245 244 159 3 327 281 236 226 207 179 178 187 208 224 229 231 355 304 319 278 269 279 308 305 269 276 307 314 312 317 318 322 323 325 323 324 322 315 316 325 328 323 320 320 326 323 310 297 284 278 280 280 286 289 284 272 272 275 275 282 280 269 271 287 300 299 303 303 301 304 303 303 301 309 299 266 152 212
277 279 270 267 271 274 283 275 275 262 212 178 177 227 291 292 215 174 181 180 190 220 190 147 185 201 233 225 239 249 247 254 271 310 317 300 313 320 326 329 321 330 319 319 317 314 319 327 329 324 321 321 332 333 328 323 307 290 286 287 287 282 282 285 288 283 272 271 282 298 336 345 334 314 310 306 303 301 295 286 282 289 299 300 311 299 294
262 263 256 257 262 271 313 333 312 266 239 208 193 212 221 243 202 181 186 206 218 221 195 181 179 193 207 217 231 238 253 259 271 288 326 348 314 323 329 337 334 325 316 313 316 325 329 326 326 324 320 329 331 331 330 331 324 304 286 282 286 290 291 297 304 301 304 313 328 326 329 316 307 302 299 292 287 285 281 278 278 284 289 297 301 280 301
298 297 286 270 263 254 251 248 253 259 255 234 223 223 232 229 199 177 178 201 208 210 196 197 187 181 188 215 223 242 251 261 281 308 322 308 316 324 314 320 316 314 311 315 326 330 325 325 328 326 326 332 329 330 333 332 333 327 306 297 294 289 289 305 303 298 293 292 300 314 302 301 299 291 278 272 272 274 278 282 286 288 283 279 267 279 286
295 291 277 269 266 255 246 248 247 262 265 254 243 237 227 219 212 188 185 188 180 193 196 191 189 192 188 209 228 245 258 293 311 286 275 288 306 313 320 321 316 317 320 323 326 324 325 323 325 327 333 328 327 329 332 334 332 334 327 320 312 309 302 294 285 287 293 302 307 308 306 296 289 284 283 284 284 282 282 288 293 293 295 293 297 301 3
301 296 294 285 269 257 248 233 230 244 249 247 256 254 231 211 212 210 200 190 184 195 193 182 174 192 211 217 230 238 242 279 274 283 297 294 293 313 321 321 320 319 319 322 319 322 323 323 323 332 330 326 328 330 331 332 336 332 330 335 330 322 309 314 310 304 302 297 293 291 290 289 285 285 286 282 283 286 290 294 296 300 304 309 308 330 56
302 293 285 279 273 263 253 243 236 215 199 223 234 235 242 230 214 212 205 195 198 195 193 185 180 194 201 217 229 228 232 251 252 266 272 289 325 347 344 332 319 316 315 314 320 324 323 323 324 328 329 330 331 330 328 328 328 329 331 329 326 322 321 316 310 306 297 293 288 283 283 282 286 284 285 292 296 299 296 294 297 296 296 302 306 30 82
310 304 302 299 288 275 269 259 248 242 222 215 216 206 223 296 265 213 195 194 196 186 177 165 171 184 202 215 210 196 220 227 247 259 278 340 352 6 356 329 323 315 310 314 320 323 327 332 333 331 331 331 328 324 326 331 331 332 330 328 324 321 317 312 312 306 301 295 293 297 296 296 291 286 287 291 291 289 292 297 300 300 299 299 301 350 114
302 306 312 316 316 298 265 246 228 230 226 221 210 204 201 186 132 290 251 184 178 171 171 184 186 195 206 208 208 202 211 230 247 259 280 9 21 4 328 321 314 314 316 321 328 341 340 334 330 329 330 328 324 323 330 330 329 328 330 329 327 321 317 312 310 307 305 299 295 291 291 292 295 298 300 301 300 300 301 297 294 292 290 292 292 301 248
305 307 315 317 320 309 284 256 230 217 224 223 214 187 171 163 185 229 221 180 168 170 181 186 190 201 200 192 192 210 217 223 217 195 354 37 328 312 304 307 312 314 318 316 338 352 341 329 328 332 331 325 325 329 333 331 327 326 323 323 320 317 312 309 306 304 300 296 292 290 288 290 292 292 291 288 288 290 287 282 282 282 286 294 305 315 313
299 305 300 280 274 289 288 268 225 207 217 220 208 173 164 175 206 234 216 174 171 173 178 186 195 198 201 192 193 194 188 197 162 288 279 325 313 317 311 312 311 315 318 315 340 335 326 325 338 334 327 324 328 328 329 328 325 321 322 322 317 314 310 309 306 305 303 302 298 295 292 290 285 287 290 291 285 281 281 288 295 310 322 321 323 315 308
312 310 303 303 308 319 320 313 297 248 221 230 201 177 164 154 191 214 179 179 179 170 181 194 192 185 179 166 165 183 183 171 180 162 300 285 305 316 313 316 321 323 332 347 339 326 322 336 338 327 321 327 330 329 326 327 326 325 324 320 315 310 305 300 299 297 297 296 300 301 300 299 296 291 289 291 294 298 300 304 312 310 329 330 319 307 305
305 306 305 306 305 319 360 316 287 269 228 204 195 164 143 138 207 199 168 181 165 154 167 177 169 164 180 180 187 181 181 162 180 220 239 271 291 312 318 309 356 47 34 10 328 325 329 335 327 323 328 331 334 332 326 324 324 321 317 311 308 301 298 294 295 298 300 301 299 298 302 298 296 295 291 293 303 301 301 304 316 317 297 288 288 291 301
310 311 312 314 309 320 323 279 277 277 301 212 174 153 153 144 233 199 172 173 168 160 173 168 158 172 179 181 183 170 151 167 193 223 254 300 312 305 302 340 62 24 45 29 337 325 330 334 336 334 333 338 338 331 324 323 323 319 314 308 305 306 306 304 300 295 294 296 299 302 300 301 305 307 305 304 296 293 293 292 295 297 301 310 324 326 317
308 309 309 308 308 313 302 250 235 353 331 247 195 158 151 194 213 179 171 167 160 170 169 159 168 170 174 173 173 186 162 195 203 229 193 292 302 315 322 352 28 15 55 360 351 329 330 336 345 333 334 339 335 326 323 321 318 311 309 307 308 311 311 309 305 303 301 299 300 303 305 306 308 309 311 315 316 313 307 302 304 319 326 337 341 335 326
311 309 310 308 304 304 165 181 166 176 239 244 222 190 184 214 193 169 159 144 155 170 157 166 167 163 155 155 164 175 190 212 219 252 281 306 310 312 316 28 20 5 41 6 344 336 341 346 344 347 354 343 327 327 324 316 310 309 309 309 311 313 310 308 305 305 304 305 304 301 303 305 311 315 317 310 305 303 303 301 308 323 347 348 340 332 327
306 305 303 304 302 268 196 168 161 180 223 217 199 192 167 173 155 177 160 146 156 160 161 140 122 150 160 159 156 177 198 190 211 242 275 267 318 59 79 29 327 30 41 14 350 336 353 14 8 9 344 337 330 327 321 314 311 313 314 316 316 315 311 307 304 305 308 310 309 312 318 324 320 311 307 305 301 301 308 311 313 329 359 5 356 347 347
298 299 300 295 302 313 245 224 166 150 189 250 216 157 168 183 175 162 147 152 160 155 150 151 153 144 151 155 164 185 188 186 202 223 286 295 304 109 101 39 360 5 51 22 353 341 348 341 340 347 342 335 332 330 327 322 327 330 330 327 322 317 314 315 311 308 305 306 305 310 314 312 308 306 309 308 309 310 320 329 337 348 358 1 9 10 357
295 295 296 298 292 272 236 219 202 198 185 160 281 183 174 162 150 152 153 156 157 149 155 153 158 156 168 159 172 173 162 143 256 358 298 304 300 324 49 10 353 356 24 5 351 347 340 349 354 347 338 338 335 340 339 337 336 336 333 332 328 324 320 318 321 321 320 316 311 309 316 319 319 321 323 321 327 324 335 341 342 350 357 6 5 14 10
299 300 306 307 300 284 243 228 232 196 164 158 184 215 180 150 147 125 139 148 150 153 161 157 159 160 168 155 155 166 190 160 135 151 187 304 338 328 35 27 19 49 356 334 1 10 357 353 350 349 342 341 342 348 349 351 348 346 342 337 333 334 335 334 330 329 326 326 326 321 321 327 330 325 323 316 317 324 318 315 319 5 25 29 28 37 47
296 292 282 278 287 283 251 206 214 197 162 139 155 135 126 123 110 138 142 129 159 154 147 148 145 147 142 148 161 142 230 152 147 130 244 158 213 272 33 54 75 42 355 350 11 2 9 6 2 354 347 344 349 352 351 357 3 0 355 346 339 335 341 340 332 328 326 325 336 344 348 353 345 334 324 329 350 9 9 11 12 22 30 35 31 42 48
285 289 289 284 286 304 275 186 190 181 150 135 129 124 122 126 139 146 144 148 146 138 140 132 134 137 147 174 135 99 69 26 271 137 173 275 289 4 5 93 69 19 353 353 1 8 54 22 6 2 350 350 357 356 356 355 3 3 3 3 352 341 345 332 341 346 332 341 347 349 4 13 6 357 356 3 15 27 35 21 14 30 39 48 55 45 47
291 302 319 320 298 8 99 170 182 150 128 123 116 106 108 99 90 120 139 136 140 146 149 151 148 153 142 71 4 114 95 92 359 37 17 7 2 342 355 111 131 72 358 358 355 351 24 21 24 16 355 352 1 1 359 357 354 357 5 5 6 1 357 355 358 352 344 359 4 359 1 6 9 4 2 4 13 20 20 22 21 23 34 47 45 40 45
331 356 300 262 267 41 229 189 155 139 135 122 117 124 127 128 143 143 139 148 148 140 139 149 152 167 183 160 153 91 86 59 98 201 107 62 352 288 328 326 357 354 355 355 359 356 4 3 5 7 355 358 6 11 9 0 0 5 5 6 7 11 11 6 359 2 359 1 6 10 5 5 13 23 17 8 18 24 24 23 23 26 27 31 43 59 54
357 339 359 7 347 41 86 113 125 120 116 125 132 153 162 178 162 142 113 127 125 123 109 100 269 234 132 133 140 124 126 158 102 335 309 150 208 259 329 354 69 81 31 358 354 353 347 2 360 358 357 358 356 12 18 16 11 13 13 13 13 10 9 12 11 8 9 9 5 5 13 13 10 14 17 19 21 24 29 30 32 26 24 22 18 16 27
33 47 30 23 65 99 112 102 95 96 110 130 136 152 160 157 142 160 172 164 142 145 158 182 179 174 136 132 103 104 149 166 151 163 131 348 333 327 42 338 315 40 12 351 353 353 351 359 357 8 1 358 6 356 4 16 23 16 17 19 23 20 20 19 17 17 15 15 17 15 11 18 24 22 27 27 25 20 20 26 31 27 23 17 17 20 14